Regional Weather Roundup
Issued by NWS

Home | Current Version | Previous Version | Text Only | Print | Product List | Glossary Off
Versions: 1 2 3 4 5 6 7 8 9 10 11 12 13 14 15 16 17 18 19 20 21 22 23 24 25 26 27 28 29 30 31 32 33 34 35 36 37 38 39 40 41 42 43 44 45 46 47 48 49 50

000
ASUS43 KLSX 171507
RWRMO

WEATHER SUMMARY FOR MISSOURI
NATIONAL WEATHER SERVICE SPRINGFIELD MO
900 AM CST SAT FEB 17 2018

NOTE: "FAIR" INDICATES FEW OR NO CLOUDS BELOW 12,000 FEET WITH NO
       SIGNIFICANT WEATHER AND/OR OBSTRUCTIONS TO VISIBILITY.
       CURRENT SKY AND/OR WEATHER CONDITIONS ARE NOT AVAILABLE FOR
       CHILLICOTHE AND FARMINGTON.

MOZ001>031-035>038-043-044-053-054-171600-
...NORTHERN AND WESTERN MISSOURI...

CITY           SKY/WX    TMP DP  RH WIND       PRES   REMARKS
KANSAS CTY INT CLOUDY    34  32  92 SW12      29.99R WCI  25
KANSAS C DTWN  CLOUDY    37  33  85 SW8       30.00R
LEE`S SUMMIT   CLOUDY    34  34 100 SW12      30.00R FOG     WCI  25
ST JOSEPH      CLOUDY    35  29  78 SW14      29.98R WCI  26
CHILLICOTHE      N/A     32  29  88 S10       30.00R WCI  24
KIRKSVILLE     CLOUDY    33  25  72 S10       29.98S WCI  25

$$
MOZ066>068-077>081-088>096-101>105-171600-
...SOUTHWEST MISSOURI...

CITY           SKY/WX    TMP DP  RH WIND       PRES   REMARKS
SPRINGFIELD    LGT RAIN  38  36  92 S3        30.05R FOG
JOPLIN         LGT RAIN  39  39 100 SW8       30.04S FOG
BRANSON        CLOUDY    37  37 100 SE6       30.05R FOG

$$
MOZ032>034-039>042-045>050-055>058-069>072-171600-
...CENTRAL MISSOURI...

CITY           SKY/WX    TMP DP  RH WIND       PRES   REMARKS
COLUMBIA       LGT SNOW  33  31  92 S13       30.03S FOG     WCI  24
JEFFERSON CITY LGT SNOW  33  31  92 SE8       30.06S FOG     WCI  26
ROLLA          LGT SNOW  32  31  96 SE7       30.04F FOG     WCI  26
SEDALIA        CLOUDY    35  35 100 S13       30.02R WCI  26
WHITEMAN AFB   LGT RAIN  34  32  93 S13       29.96R WCI  25
WARRENSBURG    DRIZZLE   34  32  93 S9        30.01R WCI  26
OSAGE BEACH    LGT RAIN  34  32  93 SE5       30.05S FOG     WCI  30

$$
MOZ051-052-059>065-171600-
...EAST CENTRAL MISSOURI...

CITY           SKY/WX    TMP DP  RH WIND       PRES   REMARKS
ST LOUIS INTL  LGT SNOW  33  32  96 S12       30.07F VSB 3/4 WCI  24
SPIRIT OF STL  LGT SNOW  33  32  96 S7        30.07F VSB 3/4 WCI  27
ST CHARLES     LGT SNOW  33  31  92 SE10      30.07F VSB 3/4 WCI  25

$$
MOZ072>076-082>087-097>100-106>115-171600-
...SOUTH CENTRAL AND SOUTHEAST MISSOURI...

CITY           SKY/WX    TMP DP  RH WIND       PRES   REMARKS
CAPE GIRARDEAU LGT RAIN  33  32  96 NE6       30.10F FOG     WCI  28
FARMINGTON     LGT SNOW  32  31  96 E3        30.08F VSB 3/4
POPLAR BLUFF   RAIN      36  35  96 NE3       30.09R FOG
WEST PLAINS    MIX PCPN  34  33  96 SE5       30.04S FOG     WCI  30

$$



USA.gov is the U.S. government's official web portal to all federal, state and local government web resources and services.